,,PressureMeas_1m,,PRMeasQMR101_1,,RHStat155_1m_1,,SRMeasQMS101R_1m,,TAStat155_1m_1,,GenWind_1,,GenWind_1,
2017-08-10, 07:00:06,VALID,918.023,VALID,0.0,VALID,96.561,VALID,44.8,VALID,19.099,VALID,141.0,VALID,0.97,
2017-08-10, 07:01:06,VALID,918.04,VALID,0.0,VALID,96.528,VALID,45.539,VALID,19.076,VALID,142.0,VALID,1.205,
2017-08-10, 07:02:06,VALID,918.052,VALID,0.0,VALID,96.619,VALID,46.286,VALID,19.042,VALID,142.0,VALID,1.349,
2017-08-10, 07:03:06,VALID,918.064,VALID,0.0,VALID,96.732,VALID,47.117,VALID,19.007,VALID,145.0,VALID,1.427,
2017-08-10, 07:04:06,VALID,918.071,VALID,0.0,VALID,96.79,VALID,47.921,VALID,18.97,VALID,149.0,VALID,1.831,
2017-08-10, 07:05:06,VALID,918.096,VALID,0.0,VALID,96.986,VALID,48.865,VALID,18.933,VALID,149.0,VALID,1.629,
2017-08-10, 07:06:06,VALID,918.1,VALID,0.0,VALID,97.117,VALID,49.93,VALID,18.909,VALID,146.0,VALID,1.349,
2017-08-10, 07:07:06,VALID,918.105,VALID,0.0,VALID,97.324,VALID,51.032,VALID,18.918,VALID,142.0,VALID,0.903,
2017-08-10, 07:08:06,VALID,918.111,VALID,0.0,VALID,97.392,VALID,52.076,VALID,18.916,VALID,137.0,VALID,0.839,
2017-08-10, 07:09:06,VALID,918.115,VALID,0.0,VALID,97.458,VALID,53.054,VALID,18.95,VALID,126.0,VALID,0.373,
2017-08-10, 07:10:06,VALID,918.116,VALID,0.0,VALID,97.489,VALID,53.991,VALID,18.985,VALID,116.0,VALID,0.549,
2017-08-10, 07:11:06,VALID,918.119,VALID,0.0,VALID,97.427,VALID,55.046,VALID,19.012,VALID,104.0,VALID,0.6,
2017-08-10, 07:12:06,VALID,918.111,VALID,0.0,VALID,97.455,VALID,56.071,VALID,19.065,VALID,95.0,VALID,0.527,
2017-08-10, 07:13:06,VALID,918.122,VALID,0.0,VALID,97.336,VALID,57.096,VALID,19.086,VALID,98.0,VALID,0.589,
2017-08-10, 07:14:06,VALID,918.115,VALID,0.0,VALID,97.17,VALID,58.064,VALID,19.115,VALID,100.0,VALID,0.477,
2017-08-10, 07:15:06,VALID,918.132,VALID,0.0,VALID,97.024,VALID,59.019,VALID,19.154,VALID,102.0,VALID,0.536,
2017-08-10, 07:16:06,VALID,918.126,VALID,0.0,VALID,96.686,VALID,59.885,VALID,19.185,VALID,103.0,VALID,0.655,
2017-08-10, 07:17:06,VALID,918.148,VALID,0.0,VALID,96.514,VALID,60.787,VALID,19.249,VALID,103.0,VALID,0.663,
2017-08-10, 07:18:06,VALID,918.142,VALID,0.0,VALID,96.327,VALID,61.757,VALID,19.305,VALID,99.0,VALID,0.568,
2017-08-10, 07:19:06,VALID,918.152,VALID,0.0,VALID,96.26,VALID,62.826,VALID,19.364,VALID,100.0,VALID,0.461,
2017-08-10, 07:20:06,VALID,918.159,VALID,0.0,VALID,96.088,VALID,64.066,VALID,19.406,VALID,114.0,VALID,0.767,
2017-08-10, 07:21:06,VALID,918.166,VALID,0.0,VALID,95.722,VALID,65.398,VALID,19.468,VALID,120.0,VALID,0.809,
2017-08-10, 07:22:06,VALID,918.172,VALID,0.0,VALID,95.137,VALID,67.104,VALID,19.533,VALID,109.0,VALID,0.611,
2017-08-10, 07:23:06,VALID,918.185,VALID,0.0,VALID,95.188,VALID,69.248,VALID,19.613,VALID,104.0,VALID,0.166,
2017-08-10, 07:24:06,VALID,918.188,VALID,0.0,VALID,95.306,VALID,71.786,VALID,19.666,VALID,114.0,VALID,0.201,
2017-08-10, 07:25:06,VALID,918.188,VALID,0.0,VALID,94.931,VALID,74.657,VALID,19.692,VALID,129.0,VALID,0.233,
2017-08-10, 07:26:06,VALID,918.193,VALID,0.0,VALID,94.704,VALID,77.697,VALID,19.738,VALID,135.0,VALID,0.0,
2017-08-10, 07:27:06,VALID,918.201,VALID,0.0,VALID,94.722,VALID,80.835,VALID,19.791,VALID,133.0,VALID,0.081,
2017-08-10, 07:28:06,VALID,918.209,VALID,0.0,VALID,94.655,VALID,83.899,VALID,19.781,VALID,134.0,VALID,0.334,
2017-08-10, 07:29:06,VALID,918.22,VALID,0.0,VALID,94.592,VALID,86.967,VALID,19.717,VALID,139.0,VALID,0.396,
2017-08-10, 07:30:06,VALID,918.24,VALID,0.0,VALID,95.145,VALID,90.16,VALID,19.695,VALID,132.0,VALID,0.323,
2017-08-10, 07:31:06,VALID,918.255,VALID,0.0,VALID,95.505,VALID,93.527,VALID,19.692,VALID,131.0,VALID,0.286,
2017-08-10, 07:32:06,VALID,918.267,VALID,0.0,VALID,95.612,VALID,96.978,VALID,19.691,VALID,125.0,VALID,0.447,
2017-08-10, 07:33:06,VALID,918.282,VALID,0.0,VALID,95.609,VALID,100.435,VALID,19.685,VALID,111.0,VALID,0.472,
2017-08-10, 07:34:06,VALID,918.286,VALID,0.0,VALID,95.553,VALID,103.649,VALID,19.689,VALID,98.0,VALID,0.743,
2017-08-10, 07:35:06,VALID,918.305,VALID,0.0,VALID,94.765,VALID,106.481,VALID,19.666,VALID,108.0,VALID,0.765,
2017-08-10, 07:36:06,VALID,918.319,VALID,0.0,VALID,94.034,VALID,108.987,VALID,19.631,VALID,112.0,VALID,0.762,
2017-08-10, 07:37:06,VALID,918.344,VALID,0.0,VALID,94.284,VALID,111.37,VALID,19.669,VALID,105.0,VALID,0.798,
2017-08-10, 07:38:06,VALID,918.352,VALID,0.0,VALID,94.383,VALID,114.042,VALID,19.699,VALID,100.0,VALID,0.827,
2017-08-10, 07:39:06,VALID,918.367,VALID,0.0,VALID,94.548,VALID,117.154,VALID,19.742,VALID,99.0,VALID,0.753,
2017-08-10, 07:40:06,VALID,918.385,VALID,0.0,VALID,94.759,VALID,120.626,VALID,19.813,VALID,111.0,VALID,0.374,
2017-08-10, 07:41:06,VALID,918.404,VALID,0.0,VALID,95.063,VALID,124.095,VALID,19.883,VALID,129.0,VALID,0.673,
2017-08-10, 07:42:06,VALID,918.417,VALID,0.0,VALID,94.865,VALID,127.26,VALID,19.879,VALID,126.0,VALID,1.265,
2017-08-10, 07:43:06,VALID,918.423,VALID,0.0,VALID,94.888,VALID,129.899,VALID,19.828,VALID,135.0,VALID,0.833,
2017-08-10, 07:44:06,VALID,918.423,VALID,0.0,VALID,95.346,VALID,132.189,VALID,19.793,VALID,132.0,VALID,0.795,
2017-08-10, 07:45:06,VALID,918.433,VALID,0.0,VALID,95.61,VALID,134.194,VALID,19.76,VALID,139.0,VALID,1.02,
2017-08-10, 07:46:06,VALID,918.446,VALID,0.0,VALID,95.745,VALID,136.325,VALID,19.719,VALID,130.0,VALID,1.019,
2017-08-10, 07:47:06,VALID,918.459,VALID,0.0,VALID,96.014,VALID,138.724,VALID,19.714,VALID,138.0,VALID,1.32,
2017-08-10, 07:48:06,VALID,918.487,VALID,0.0,VALID,94.874,VALID,141.301,VALID,19.685,VALID,133.0,VALID,1.395,
2017-08-10, 07:49:06,VALID,918.509,VALID,0.0,VALID,94.985,VALID,144.097,VALID,19.698,VALID,137.0,VALID,1.321,
2017-08-10, 07:50:06,VALID,918.532,VALID,0.0,VALID,94.557,VALID,146.924,VALID,19.69,VALID,146.0,VALID,1.527,
2017-08-10, 07:51:06,VALID,918.536,VALID,0.0,VALID,94.541,VALID,149.925,VALID,19.623,VALID,145.0,VALID,1.644,
2017-08-10, 07:52:06,VALID,918.558,VALID,0.0,VALID,94.807,VALID,153.713,VALID,19.536,VALID,148.0,VALID,1.895,
2017-08-10, 07:53:06,VALID,918.578,VALID,0.0,VALID,95.061,VALID,161.497,VALID,19.469,VALID,143.0,VALID,1.672,
2017-08-10, 07:54:06,VALID,918.602,VALID,0.0,VALID,95.599,VALID,183.502,VALID,19.477,VALID,143.0,VALID,1.782,
2017-08-10, 07:55:06,VALID,918.611,VALID,0.0,VALID,95.378,VALID,196.071,VALID,19.501,VALID,140.0,VALID,1.554,
2017-08-10, 07:56:06,VALID,918.631,VALID,0.0,VALID,95.314,VALID,200.921,VALID,19.547,VALID,145.0,VALID,1.679,
2017-08-10, 07:57:06,VALID,918.642,VALID,0.0,VALID,94.171,VALID,194.207,VALID,19.538,VALID,148.0,VALID,1.671,
2017-08-10, 07:58:06,VALID,918.665,VALID,0.0,VALID,94.102,VALID,204.151,VALID,19.588,VALID,140.0,VALID,1.479,
2017-08-10, 07:59:06,VALID,918.68,VALID,0.0,VALID,92.748,VALID,226.669,VALID,19.673,VALID,134.0,VALID,1.352,
2017-08-10, 08:00:06,VALID,918.695,VALID,0.0,VALID,92.842,VALID,304.239,VALID,19.838,VALID,131.0,VALID,0.968,
2017-08-10, 08:01:06,VALID,918.721,VALID,0.0,VALID,91.179,VALID,275.935,VALID,19.988,VALID,132.0,VALID,1.187,
2017-08-10, 08:02:06,VALID,918.747,VALID,0.0,VALID,90.721,VALID,250.515,VALID,20.132,VALID,136.0,VALID,0.963,
2017-08-10, 08:03:06,VALID,918.793,VALID,0.0,VALID,90.984,VALID,268.369,VALID,20.256,VALID,126.0,VALID,0.869,
2017-08-10, 08:04:06,VALID,918.805,VALID,0.0,VALID,89.709,VALID,260.848,VALID,20.392,VALID,118.0,VALID,0.995,
2017-08-10, 08:05:06,VALID,918.828,VALID,0.0,VALID,86.719,VALID,252.293,VALID,20.508,VALID,127.0,VALID,1.307,
2017-08-10, 08:06:06,VALID,918.846,VALID,0.0,VALID,87.044,VALID,254.966,VALID,20.597,VALID,145.0,VALID,1.212,
2017-08-10, 08:07:06,VALID,918.859,VALID,0.0,VALID,86.865,VALID,266.163,VALID,20.611,VALID,147.0,VALID,1.211,
2017-08-10, 08:08:06,VALID,918.873,VALID,0.0,VALID,85.475,VALID,249.291,VALID,20.594,VALID,149.0,VALID,1.482,
2017-08-10, 08:09:06,VALID,918.87,VALID,0.0,VALID,85.341,VALID,250.289,VALID,20.587,VALID,144.0,VALID,1.246,
2017-08-10, 08:10:06,VALID,918.866,VALID,0.0,VALID,84.931,VALID,244.929,VALID,20.626,VALID,142.0,VALID,1.152,
2017-08-10, 08:11:06,VALID,918.859,VALID,0.0,VALID,85.901,VALID,231.876,VALID,20.7,VALID,134.0,VALID,0.593,
2017-08-10, 08:12:06,VALID,918.871,VALID,0.0,VALID,85.219,VALID,222.24,VALID,20.785,VALID,142.0,VALID,0.877,
2017-08-10, 08:13:06,VALID,918.883,VALID,0.0,VALID,84.875,VALID,215.786,VALID,20.84,VALID,124.0,VALID,0.805,
2017-08-10, 08:14:06,VALID,918.882,VALID,0.0,VALID,85.844,VALID,211.227,VALID,20.903,VALID,125.0,VALID,0.445,
2017-08-10, 08:15:06,VALID,918.886,VALID,0.0,VALID,85.24,VALID,212.002,VALID,21.025,VALID,133.0,VALID,0.705,
2017-08-10, 08:16:06,VALID,918.887,VALID,0.0,VALID,83.628,VALID,207.901,VALID,21.136,VALID,139.0,VALID,0.672,
2017-08-10, 08:17:06,VALID,918.897,VALID,0.0,VALID,82.514,VALID,204.918,VALID,21.167,VALID,156.0,VALID,0.934,
2017-08-10, 08:18:06,VALID,918.902,VALID,0.0,VALID,81.436,VALID,204.338,VALID,21.133,VALID,148.0,VALID,0.954,
2017-08-10, 08:19:06,VALID,918.909,VALID,0.0,VALID,82.094,VALID,205.575,VALID,21.113,VALID,137.0,VALID,0.804,
2017-08-10, 08:20:06,VALID,918.912,VALID,0.0,VALID,83.022,VALID,206.395,VALID,21.139,VALID,152.0,VALID,0.604,
2017-08-10, 08:21:06,VALID,918.922,VALID,0.0,VALID,82.696,VALID,211.879,VALID,21.153,VALID,141.0,VALID,0.446,
2017-08-10, 08:22:06,VALID,918.929,VALID,0.0,VALID,83.332,VALID,223.158,VALID,21.211,VALID,121.0,VALID,0.328,
2017-08-10, 08:23:06,VALID,918.922,VALID,0.0,VALID,83.88,VALID,241.514,VALID,21.325,VALID,123.0,VALID,0.209,
2017-08-10, 08:24:06,VALID,918.924,VALID,0.0,VALID,83.326,VALID,238.86,VALID,21.442,VALID,94.0,VALID,0.488,
2017-08-10, 08:25:06,VALID,918.918,VALID,0.0,VALID,83.658,VALID,240.019,VALID,21.503,VALID,64.0,VALID,0.648,
2017-08-10, 08:26:06,VALID,918.922,VALID,0.0,VALID,83.543,VALID,251.497,VALID,21.527,VALID,65.0,VALID,0.796,
2017-08-10, 08:27:06,VALID,918.922,VALID,0.0,VALID,80.695,VALID,274.621,VALID,21.508,VALID,76.0,VALID,0.85,
2017-08-10, 08:28:06,VALID,918.924,VALID,0.0,VALID,80.112,VALID,348.72,VALID,21.49,VALID,87.0,VALID,0.631,
2017-08-10, 08:29:06,VALID,918.927,VALID,0.0,VALID,82.242,VALID,393.725,VALID,21.552,VALID,73.0,VALID,0.569,
2017-08-10, 08:30:06,VALID,918.936,VALID,0.0,VALID,81.881,VALID,337.649,VALID,21.631,VALID,60.0,VALID,0.99,
2017-08-10, 08:31:06,VALID,918.931,VALID,0.0,VALID,80.544,VALID,306.636,VALID,21.702,VALID,65.0,VALID,0.822,
2017-08-10, 08:32:06,VALID,918.933,VALID,0.0,VALID,80.011,VALID,299.792,VALID,21.77,VALID,77.0,VALID,0.599,
2017-08-10, 08:33:06,VALID,918.937,VALID,0.0,VALID,81.424,VALID,313.8,VALID,21.874,VALID,63.0,VALID,0.589,
2017-08-10, 08:34:06,VALID,918.947,VALID,0.0,VALID,80.644,VALID,357.844,VALID,22.02,VALID,147.0,VALID,0.348,
2017-08-10, 08:35:06,VALID,918.954,VALID,0.0,VALID,79.686,VALID,376.058,VALID,22.164,VALID,176.0,VALID,0.31,
2017-08-10, 08:36:06,VALID,918.956,VALID,0.0,VALID,80.892,VALID,333.732,VALID,22.291,VALID,153.0,VALID,0.355,
2017-08-10, 08:37:06,VALID,918.962,VALID,0.0,VALID,80.102,VALID,299.253,VALID,22.434,VALID,151.0,VALID,0.362,
2017-08-10, 08:38:06,VALID,918.969,VALID,0.0,VALID,77.945,VALID,303.139,VALID,22.49,VALID,142.0,VALID,0.491,
2017-08-10, 08:39:06,VALID,918.982,VALID,0.0,VALID,80.046,VALID,327.538,VALID,22.492,VALID,145.0,VALID,0.673,
2017-08-10, 08:40:06,VALID,918.996,VALID,0.0,VALID,79.997,VALID,407.341,VALID,22.518,VALID,149.0,VALID,0.975,
2017-08-10, 08:41:06,VALID,919.015,VALID,0.0,VALID,78.478,VALID,417.601,VALID,22.399,VALID,144.0,VALID,1.011,
2017-08-10, 08:42:06,VALID,919.031,VALID,0.0,VALID,77.424,VALID,461.185,VALID,22.204,VALID,148.0,VALID,1.189,
2017-08-10, 08:43:06,VALID,919.038,VALID,0.0,VALID,78.053,VALID,439.0,VALID,22.045,VALID,152.0,VALID,1.175,
2017-08-10, 08:44:06,VALID,919.051,VALID,0.0,VALID,79.18,VALID,387.812,VALID,21.989,VALID,145.0,VALID,0.994,
2017-08-10, 08:45:06,VALID,919.056,VALID,0.0,VALID,78.413,VALID,329.73,VALID,21.998,VALID,144.0,VALID,0.911,
2017-08-10, 08:46:06,VALID,919.046,VALID,0.0,VALID,80.231,VALID,313.145,VALID,22.126,VALID,131.0,VALID,0.547,
2017-08-10, 08:47:06,VALID,919.043,VALID,0.0,VALID,77.281,VALID,308.983,VALID,22.226,VALID,148.0,VALID,0.821,
2017-08-10, 08:48:06,VALID,919.033,VALID,0.0,VALID,76.428,VALID,310.012,VALID,22.172,VALID,152.0,VALID,0.941,
2017-08-10, 08:49:06,VALID,919.024,VALID,0.0,VALID,74.368,VALID,320.605,VALID,22.118,VALID,160.0,VALID,1.0,
2017-08-10, 08:50:06,VALID,919.018,VALID,0.0,VALID,76.576,VALID,339.618,VALID,22.226,VALID,151.0,VALID,0.322,
2017-08-10, 08:51:06,VALID,919.011,VALID,0.0,VALID,76.88,VALID,381.453,VALID,22.41,VALID,154.0,VALID,0.595,
2017-08-10, 08:52:06,VALID,919.008,VALID,0.0,VALID,75.004,VALID,401.194,VALID,22.561,VALID,161.0,VALID,0.504,
2017-08-10, 08:53:06,VALID,919.005,VALID,0.0,VALID,74.684,VALID,423.389,VALID,22.661,VALID,123.0,VALID,0.359,
2017-08-10, 08:54:06,VALID,919.004,VALID,0.0,VALID,74.295,VALID,397.234,VALID,22.803,VALID,109.0,VALID,0.646,
2017-08-10, 08:55:06,VALID,919.012,VALID,0.0,VALID,73.142,VALID,384.031,VALID,22.862,VALID,112.0,VALID,0.492,
2017-08-10, 08:56:06,VALID,919.002,VALID,0.0,VALID,74.226,VALID,365.896,VALID,22.987,VALID,106.0,VALID,0.541,
2017-08-10, 08:57:06,VALID,919.009,VALID,0.0,VALID,74.961,VALID,334.901,VALID,22.968,VALID,103.0,VALID,0.351,
2017-08-10, 08:58:06,VALID,919.036,VALID,0.0,VALID,76.921,VALID,329.553,VALID,23.046,VALID,84.0,VALID,0.35,
2017-08-10, 08:59:06,VALID,919.041,VALID,0.0,VALID,73.234,VALID,322.779,VALID,23.127,VALID,100.0,VALID,0.483,
2017-08-10, 09:00:06,VALID,919.062,VALID,0.0,VALID,71.319,VALID,322.329,VALID,23.022,VALID,111.0,VALID,0.265,
2017-08-10, 09:01:06,VALID,919.066,VALID,0.0,VALID,72.882,VALID,328.731,VALID,23.016,VALID,100.0,VALID,0.273,
2017-08-10, 09:02:06,VALID,919.063,VALID,0.0,VALID,72.55,VALID,352.196,VALID,23.072,VALID,75.0,VALID,0.448,
2017-08-10, 09:03:06,VALID,919.073,VALID,0.0,VALID,74.633,VALID,338.044,VALID,23.201,VALID,14.0,VALID,0.766,
2017-08-10, 09:04:06,VALID,919.075,VALID,0.0,VALID,72.906,VALID,342.349,VALID,23.342,VALID,358.0,VALID,0.528,
2017-08-10, 09:05:06,VALID,919.086,VALID,0.0,VALID,71.693,VALID,352.394,VALID,23.345,VALID,354.0,VALID,0.459,
2017-08-10, 09:06:06,VALID,919.089,VALID,0.0,VALID,71.859,VALID,365.021,VALID,23.423,VALID,1.0,VALID,0.364,
2017-08-10, 09:07:06,VALID,919.099,VALID,0.0,VALID,71.482,VALID,376.553,VALID,23.556,VALID,327.0,VALID,0.002,
2017-08-10, 09:08:06,VALID,919.092,VALID,0.0,VALID,70.746,VALID,371.506,VALID,23.702,VALID,325.0,VALID,0.0,
2017-08-10, 09:09:06,VALID,919.093,VALID,0.0,VALID,70.524,VALID,383.813,VALID,23.793,VALID,154.0,VALID,0.322,
2017-08-10, 09:10:06,VALID,919.1,VALID,0.0,VALID,69.598,VALID,399.16,VALID,23.666,VALID,93.0,VALID,0.271,
2017-08-10, 09:11:06,VALID,919.11,VALID,0.0,VALID,72.517,VALID,363.62,VALID,23.601,VALID,112.0,VALID,0.175,
2017-08-10, 09:12:06,VALID,919.108,VALID,0.0,VALID,71.223,VALID,356.44,VALID,23.718,VALID,178.0,VALID,0.283,
2017-08-10, 09:13:06,VALID,919.107,VALID,0.0,VALID,70.995,VALID,356.193,VALID,23.739,VALID,127.0,VALID,0.265,
2017-08-10, 09:14:06,VALID,919.102,VALID,0.0,VALID,71.389,VALID,353.227,VALID,23.722,VALID,93.0,VALID,0.373,
2017-08-10, 09:15:06,VALID,919.1,VALID,0.0,VALID,70.944,VALID,357.379,VALID,23.757,VALID,86.0,VALID,0.092,
2017-08-10, 09:16:06,VALID,919.091,VALID,0.0,VALID,72.138,VALID,369.534,VALID,23.848,VALID,79.0,VALID,0.0,
2017-08-10, 09:17:06,VALID,919.076,VALID,0.0,VALID,72.353,VALID,422.298,VALID,24.069,VALID,29.0,VALID,0.004,
2017-08-10, 09:18:06,VALID,919.065,VALID,0.0,VALID,72.467,VALID,497.522,VALID,24.153,VALID,340.0,VALID,0.202,
2017-08-10, 09:19:06,VALID,919.05,VALID,0.0,VALID,72.297,VALID,480.446,VALID,24.154,VALID,354.0,VALID,0.443,
2017-08-10, 09:20:06,VALID,919.039,VALID,0.0,VALID,71.938,VALID,468.155,VALID,24.139,VALID,318.0,VALID,0.378,
2017-08-10, 09:21:06,VALID,919.028,VALID,0.0,VALID,70.456,VALID,567.438,VALID,23.922,VALID,293.0,VALID,0.253,
2017-08-10, 09:22:06,VALID,919.031,VALID,0.0,VALID,72.193,VALID,459.724,VALID,23.827,VALID,278.0,VALID,0.055,
2017-08-10, 09:23:06,VALID,919.018,VALID,0.0,VALID,72.178,VALID,461.894,VALID,23.929,VALID,324.0,VALID,0.281,
2017-08-10, 09:24:06,VALID,919.018,VALID,0.0,VALID,67.79,VALID,456.491,VALID,24.084,VALID,331.0,VALID,0.477,
2017-08-10, 09:25:06,VALID,919.004,VALID,0.0,VALID,67.413,VALID,456.337,VALID,24.141,VALID,20.0,VALID,1.564,
2017-08-10, 09:26:06,VALID,919.002,VALID,0.0,VALID,68.006,VALID,441.381,VALID,24.051,VALID,12.0,VALID,1.199,
2017-08-10, 09:27:06,VALID,919.003,VALID,0.0,VALID,65.555,VALID,447.207,VALID,23.823,VALID,360.0,VALID,0.977,
2017-08-10, 09:28:06,VALID,918.993,VALID,0.0,VALID,65.658,VALID,395.073,VALID,23.76,VALID,22.0,VALID,0.536,
2017-08-10, 09:29:06,VALID,918.982,VALID,0.0,VALID,67.62,VALID,380.395,VALID,24.011,VALID,7.0,VALID,0.448,
2017-08-10, 09:30:06,VALID,918.984,VALID,0.0,VALID,68.326,VALID,394.97,VALID,24.234,VALID,336.0,VALID,0.477,
2017-08-10, 09:31:06,VALID,918.993,VALID,0.0,VALID,67.158,VALID,429.864,VALID,24.097,VALID,325.0,VALID,0.766,
2017-08-10, 09:32:06,VALID,918.98,VALID,0.0,VALID,66.768,VALID,429.909,VALID,23.976,VALID,359.0,VALID,0.319,
2017-08-10, 09:33:06,VALID,918.968,VALID,0.0,VALID,67.391,VALID,419.628,VALID,24.088,VALID,2.0,VALID,0.583,
2017-08-10, 09:34:06,VALID,918.962,VALID,0.0,VALID,67.09,VALID,420.321,VALID,24.19,VALID,59.0,VALID,0.912,
2017-08-10, 09:35:06,VALID,918.961,VALID,0.0,VALID,66.718,VALID,414.245,VALID,24.025,VALID,52.0,VALID,1.062,
2017-08-10, 09:36:06,VALID,918.954,VALID,0.0,VALID,67.038,VALID,418.197,VALID,23.832,VALID,68.0,VALID,0.766,
2017-08-10, 09:37:06,VALID,918.956,VALID,0.0,VALID,67.106,VALID,409.049,VALID,23.67,VALID,53.0,VALID,0.691,
2017-08-10, 09:38:06,VALID,918.965,VALID,0.0,VALID,69.68,VALID,393.741,VALID,23.742,VALID,63.0,VALID,1.028,
2017-08-10, 09:39:06,VALID,918.985,VALID,0.0,VALID,70.597,VALID,375.323,VALID,23.994,VALID,346.0,VALID,0.403,
2017-08-10, 09:40:06,VALID,919.008,VALID,0.0,VALID,69.865,VALID,383.104,VALID,24.17,VALID,197.0,VALID,0.02,
2017-08-10, 09:41:06,VALID,919.024,VALID,0.0,VALID,68.17,VALID,373.11,VALID,24.302,VALID,159.0,VALID,0.036,
2017-08-10, 09:42:06,VALID,919.039,VALID,0.0,VALID,66.272,VALID,384.371,VALID,24.437,VALID,58.0,VALID,0.345,
2017-08-10, 09:43:06,VALID,919.056,VALID,0.0,VALID,64.843,VALID,384.456,VALID,24.511,VALID,53.0,VALID,0.189,
2017-08-10, 09:44:06,VALID,919.062,VALID,0.0,VALID,65.234,VALID,393.914,VALID,24.626,VALID,24.0,VALID,0.163,
2017-08-10, 09:45:06,VALID,919.057,VALID,0.0,VALID,65.291,VALID,492.272,VALID,24.834,VALID,59.0,VALID,0.147,
2017-08-10, 09:46:06,VALID,919.061,VALID,0.0,VALID,65.421,VALID,427.363,VALID,24.947,VALID,49.0,VALID,0.033,
2017-08-10, 09:47:06,VALID,919.066,VALID,0.0,VALID,65.195,VALID,411.491,VALID,25.019,VALID,64.0,VALID,0.447,
2017-08-10, 09:48:06,VALID,919.054,VALID,0.0,VALID,64.103,VALID,476.775,VALID,25.128,VALID,49.0,VALID,0.504,
2017-08-10, 09:49:06,VALID,919.055,VALID,0.0,VALID,65.249,VALID,422.761,VALID,25.274,VALID,10.0,VALID,0.261,
2017-08-10, 09:50:06,VALID,919.055,VALID,0.0,VALID,65.065,VALID,412.335,VALID,25.275,VALID,303.0,VALID,0.152,
2017-08-10, 09:51:06,VALID,919.044,VALID,0.0,VALID,66.719,VALID,449.499,VALID,25.022,VALID,269.0,VALID,0.467,
2017-08-10, 09:52:06,VALID,919.047,VALID,0.0,VALID,66.542,VALID,453.015,VALID,24.722,VALID,288.0,VALID,0.51,
2017-08-10, 09:53:06,VALID,919.032,VALID,0.0,VALID,67.225,VALID,553.126,VALID,24.463,VALID,265.0,VALID,0.193,
2017-08-10, 09:54:06,VALID,919.035,VALID,0.0,VALID,68.249,VALID,556.661,VALID,24.421,VALID,276.0,VALID,0.27,
2017-08-10, 09:55:06,VALID,919.022,VALID,0.0,VALID,68.057,VALID,451.955,VALID,24.437,VALID,280.0,VALID,0.32,
2017-08-10, 09:56:06,VALID,919.019,VALID,0.0,VALID,68.148,VALID,471.534,VALID,24.431,VALID,302.0,VALID,0.238,
2017-08-10, 09:57:06,VALID,919.011,VALID,0.0,VALID,66.638,VALID,636.078,VALID,24.46,VALID,322.0,VALID,0.295,
2017-08-10, 09:58:06,VALID,919.017,VALID,0.0,VALID,66.093,VALID,710.649,VALID,24.548,VALID,284.0,VALID,0.215,
2017-08-10, 09:59:06,VALID,919.018,VALID,0.0,VALID,67.81,VALID,516.109,VALID,24.698,VALID,243.0,VALID,0.207,
2017-08-10, 10:00:06,VALID,919.021,VALID,0.0,VALID,68.641,VALID,529.796,VALID,24.801,VALID,275.0,VALID,0.414,
2017-08-10, 10:01:06,VALID,919.024,VALID,0.0,VALID,70.374,VALID,816.967,VALID,24.774,VALID,260.0,VALID,0.276,
2017-08-10, 10:02:06,VALID,919.026,VALID,0.0,VALID,68.815,VALID,722.993,VALID,24.771,VALID,256.0,VALID,0.179,
2017-08-10, 10:03:06,VALID,919.023,VALID,0.0,VALID,68.754,VALID,745.992,VALID,24.775,VALID,302.0,VALID,0.375,
2017-08-10, 10:04:06,VALID,919.019,VALID,0.0,VALID,66.761,VALID,856.24,VALID,24.842,VALID,312.0,VALID,0.775,
2017-08-10, 10:05:06,VALID,919.019,VALID,0.0,VALID,67.021,VALID,875.183,VALID,24.76,VALID,313.0,VALID,0.575,
2017-08-10, 10:06:06,VALID,919.018,VALID,0.0,VALID,68.072,VALID,627.929,VALID,24.906,VALID,294.0,VALID,0.286,
2017-08-10, 10:07:06,VALID,919.013,VALID,0.0,VALID,65.222,VALID,521.425,VALID,24.996,VALID,322.0,VALID,0.872,
2017-08-10, 10:08:06,VALID,919.008,VALID,0.0,VALID,66.058,VALID,683.628,VALID,24.872,VALID,298.0,VALID,0.39,
2017-08-10, 10:09:06,VALID,918.999,VALID,0.0,VALID,64.919,VALID,799.06,VALID,24.864,VALID,316.0,VALID,0.213,
2017-08-10, 10:10:06,VALID,918.996,VALID,0.0,VALID,66.253,VALID,860.339,VALID,24.91,VALID,267.0,VALID,0.573,
2017-08-10, 10:11:06,VALID,918.986,VALID,0.0,VALID,66.053,VALID,841.131,VALID,24.924,VALID,339.0,VALID,0.343,
2017-08-10, 10:12:06,VALID,918.979,VALID,0.0,VALID,66.382,VALID,866.748,VALID,25.021,VALID,282.0,VALID,0.761,
2017-08-10, 10:13:06,VALID,918.983,VALID,0.0,VALID,67.481,VALID,867.316,VALID,25.006,VALID,317.0,VALID,0.173,
2017-08-10, 10:14:06,VALID,918.983,VALID,0.0,VALID,64.941,VALID,781.258,VALID,25.046,VALID,293.0,VALID,0.862,
2017-08-10, 10:15:06,VALID,918.988,VALID,0.0,VALID,64.74,VALID,696.53,VALID,24.796,VALID,302.0,VALID,1.138,
2017-08-10, 10:16:06,VALID,918.987,VALID,0.0,VALID,67.173,VALID,627.732,VALID,24.606,VALID,331.0,VALID,0.784,
2017-08-10, 10:17:06,VALID,919.0,VALID,0.0,VALID,67.953,VALID,674.106,VALID,24.703,VALID,276.0,VALID,0.344,
2017-08-10, 10:18:06,VALID,918.983,VALID,0.0,VALID,67.788,VALID,873.84,VALID,24.916,VALID,354.0,VALID,0.716,
2017-08-10, 10:19:06,VALID,918.969,VALID,0.0,VALID,66.247,VALID,1034.039,VALID,25.261,VALID,346.0,VALID,0.334,
2017-08-10, 10:20:06,VALID,918.963,VALID,0.0,VALID,65.219,VALID,967.285,VALID,25.517,VALID,271.0,VALID,0.563,
2017-08-10, 10:21:06,VALID,918.964,VALID,0.0,VALID,64.156,VALID,794.724,VALID,25.507,VALID,254.0,VALID,1.154,
2017-08-10, 10:22:06,VALID,918.953,VALID,0.0,VALID,63.49,VALID,910.144,VALID,25.178,VALID,319.0,VALID,0.404,
2017-08-10, 10:23:06,VALID,918.949,VALID,0.0,VALID,64.177,VALID,811.027,VALID,25.274,VALID,44.0,VALID,0.411,
2017-08-10, 10:24:06,VALID,918.949,VALID,0.0,VALID,65.184,VALID,599.874,VALID,25.543,VALID,342.0,VALID,0.393,
2017-08-10, 10:25:06,VALID,918.944,VALID,0.0,VALID,63.828,VALID,618.187,VALID,25.963,VALID,125.0,VALID,0.443,
2017-08-10, 10:26:06,VALID,918.956,VALID,0.0,VALID,62.891,VALID,755.052,VALID,26.164,VALID,344.0,VALID,0.777,
2017-08-10, 10:27:06,VALID,918.942,VALID,0.0,VALID,62.588,VALID,681.757,VALID,25.951,VALID,347.0,VALID,1.013,
2017-08-10, 10:28:06,VALID,918.943,VALID,0.0,VALID,65.153,VALID,542.954,VALID,25.773,VALID,30.0,VALID,1.25,
2017-08-10, 10:29:06,VALID,918.942,VALID,0.0,VALID,63.542,VALID,561.532,VALID,25.925,VALID,44.0,VALID,0.626,
2017-08-10, 10:30:06,VALID,918.941,VALID,0.0,VALID,63.455,VALID,555.35,VALID,25.871,VALID,36.0,VALID,0.373,
2017-08-10, 10:31:06,VALID,918.941,VALID,0.0,VALID,63.467,VALID,748.806,VALID,26.016,VALID,36.0,VALID,0.301,
2017-08-10, 10:32:06,VALID,918.939,VALID,0.0,VALID,64.139,VALID,838.727,VALID,26.266,VALID,14.0,VALID,0.734,
2017-08-10, 10:33:06,VALID,918.942,VALID,0.0,VALID,63.316,VALID,872.168,VALID,26.467,VALID,50.0,VALID,0.395,
2017-08-10, 10:34:06,VALID,918.948,VALID,0.0,VALID,61.434,VALID,788.435,VALID,26.712,VALID,12.0,VALID,0.641,
2017-08-10, 10:35:06,VALID,918.949,VALID,0.0,VALID,60.98,VALID,647.074,VALID,26.862,VALID,314.0,VALID,0.582,